Simultaneous Nadir Overpasses (SNOs) Predictions

Prediction of SNOs between LANDSAT-8 and METOP-B Satellite Orbit:

Table of predicted SNOs for the next 14.0 days since TLE Epoch: 2/8/2020
Index Date (LANDSAT-8) Time (LANDSAT-8) Lat,Lon (LANDSAT-8) SZA (LANDSAT-8 ) Date (METOP-B) Time (METOP-B) Lat,Lon (METOP-B) SZA (METOP-B ) Distance(km) Time Diff (sec)
1 02/08/2020 17:37:10 -81.09, 134.95 82.34 02/08/2020 17:36:22 -81.09, 134.97 82.35 0.58 48
2 02/08/2020 18:26:36 81.10, -57.33 97.67 02/08/2020 18:27:01 81.11, -57.20 97.70 2.54 25
3 02/11/2020 13:11:24 -81.09,-158.61 83.24 02/11/2020 13:10:45 -81.08,-158.77 83.28 2.92 39
4 02/11/2020 14:00:49 81.12, 9.45 96.81 02/11/2020 14:01:23 81.11, 9.40 96.82 1.05 34
5 02/14/2020 08:45:39 -81.10, -92.09 84.16 02/14/2020 08:45:08 -81.09, -92.17 84.19 1.50 31
6 02/14/2020 09:35:05 81.10, 75.58 95.83 02/14/2020 09:35:47 81.11, 75.61 95.86 0.88 42
7 02/17/2020 04:19:55 -81.09, -25.85 85.15 02/17/2020 04:19:32 -81.09, -25.95 85.17 1.69 23
8 02/17/2020 05:09:20 81.11, 142.16 94.89 02/17/2020 05:10:10 81.11, 142.18 94.92 0.42 50
9 02/19/2020 23:54:10 -81.10, 40.83 86.10 02/19/2020 23:53:54 -81.10, 41.00 86.09 2.85 16




NCC Satellite Simultaneous Nadir Overpasses (SNOs) Prediction Service
